[[{"header":{"parameterUnit":"m.s-1","parameterCategory":1,"la1":30.2991,"la2":30.254,"lo1":-89.0895,"lo2":-89.0444,"dy":0.0017,"dx":0.0017,"nx":28,"ny":28,"refTime":"2024-08-13T21:00:00:Z","depth":0,"parameterNumber":2,"parameterNumberName":"U-component_of_WINDS"},"data":[0,0,0,0,0,0,0,0,0,0,0,0,0,0,0,0,0,0,0,0,0,0,0,0,0,0,0,0,0,0,0,0,0,0,0,0,0,0,0,0,0,0,0,0,0,0,0,0,0,0,0,0,0,0,0,0,0,0,4.4001,4.4002,0,4.4166,4.4168,4.417,4.4115,4.4111,4.4108,4.4104,4.4276,4.4284,4.4292,0,0,0,0,0,0,0,0,0,0,0,0,0,4.3639,4.3646,4.4,4.4003,4.4005,4.4166,4.4168,4.417,4.4116,4.4111,4.4107,4.4103,4.4274,4.4283,4.4292,0,0,0,0,0,0,0,0,0,0,0,0,0,4.3799,4.3648,4.4,4.3997,4.3998,4.4165,4.4168,4.4171,4.4117,4.4111,4.4106,4.4101,4.427,4.4282,4.4294,4.4475,0,0,4.433,4.4335,0,0,0,0,0,0,0,0,4.379,4.3813,4.3995,4.3997,4.3999,4.4114,4.4103,4.4273,4.4118,4.4072,4.4104,4.4098,4.4227,4.4242,4.4285,4.4483,4.449,4.4331,4.4338,4.4343,4.4347,0,0,0,0,0,0,0,4.3779,4.3805,4.4066,4.3998,4.4,4.3988,4.4004,4.4135,4.4178,4.4075,4.4072,4.4092,4.4227,4.4274,4.4289,4.4493,4.4331,4.4341,4.4349,4.4353,4.4848,4.4854,0,0,0,0,0,0,4.3767,4.3796,4.4061,4.4071,4.3879,4.3998,4.4017,4.4083,4.4176,4.4185,4.4096,4.4089,4.4256,4.4275,4.4294,4.4513,4.4343,4.4354,4.4361,4.4842,4.4849,4.4856,0,0,0,0,0,0,4.3759,4.3791,4.4054,4.3933,4.3965,4.401,4.4084,4.4089,4.4135,4.4192,4.4199,4.4136,4.4252,4.4278,4.443,4.4518,4.436,4.4371,4.4835,4.4844,4.4853,4.4951,0,0,0,0,0,0,4.3749,4.3789,4.3857,4.3935,4.3972,4.4187,4.409,4.4096,4.4156,4.4148,4.4231,4.424,4.425,4.4413,4.4442,4.4531,4.438,4.4827,4.4839,4.485,4.494,4.4962,4.4981,0,0,0,0,0,4.3736,4.3879,4.3861,4.3893,4.4059,4.4192,4.4214,4.4222,4.4163,4.4233,4.4269,4.4237,4.4504,4.4429,4.4461,4.4556,4.4822,4.4836,4.4849,4.4931,4.4958,4.4981,0,0,0,0,0,0,4.3812,4.3889,4.387,4.4042,4.4111,4.4183,4.4271,4.425,4.4338,4.4326,4.4333,4.4353,4.451,4.4548,4.4463,4.4736,4.4654,4.4675,4.4705,4.4731,4.4751,4.4739,4.439,0,0,0,0,0,4.3848,4.3949,4.4011,4.4157,4.4192,4.4226,4.4284,4.4285,4.4357,4.4386,4.4433,4.4505,4.4604,4.467,4.4765,4.4945,4.4963,4.5026,4.5046,4.5063,4.5081,4.5179,4.5208,4.49,4.49,4.49,0,0,4.3925,4.3979,4.4043,4.4174,4.4227,4.4332,4.4251,4.4366,4.4444,4.4403,4.455,4.4588,4.4668,4.4835,4.4911,4.4872,4.517,4.508,4.5093,4.5102,4.5196,4.5225,4.5251,4.491,4.4908,4.4906,0,0,4.4118,4.4169,4.4296,4.4351,4.4433,4.4454,4.4485,4.456,4.4583,4.473,4.4702,4.4795,4.4967,4.5025,4.5078,4.5293,4.5267,4.5324,4.5431,4.5527,4.5551,4.5573,4.5649,4.5677,4.5341,4.5342,4.5342,0,4.4203,4.4359,4.4364,4.4481,4.454,4.4507,4.4636,4.4689,4.4798,4.484,4.4794,4.5008,4.506,4.5241,4.5293,4.5337,4.5372,4.5314,4.5547,4.5569,4.5589,4.5662,4.5691,4.5348,4.5347,4.5347,4.5346,0,4.446,4.4569,4.4662,4.4767,4.4836,4.4958,4.4982,4.5052,4.5046,4.5072,4.5223,4.5284,4.539,4.5433,4.5429,4.5614,4.5587,4.5544,4.5462,4.5624,4.5693,4.5722,4.5357,4.5355,4.5353,4.5351,0,0,4.4706,4.4812,4.4846,4.4893,4.498,4.5065,4.5186,4.5289,4.5349,4.5425,4.5527,4.5673,4.5634,4.5693,4.5695,4.5779,4.5946,4.5727,4.5728,4.5765,4.6153,4.6185,4.6217,4.5929,4.5935,4.5939,4.6146,0,4.4906,4.5118,4.5126,4.532,4.5421,4.5391,4.5496,4.5562,4.559,4.568,4.5711,4.5814,4.5755,4.579,4.5872,4.5908,4.6024,4.5894,4.6025,4.6029,4.6005,4.6253,4.6287,4.648,4.6173,4.6178,4.6181,0,4.5169,4.5252,4.5456,4.5528,4.5571,4.5666,4.5761,4.5847,4.5921,4.5935,4.6002,4.5992,4.6116,4.6029,4.6201,4.6112,4.6166,4.6192,4.62,4.6212,4.6115,4.6273,4.6542,4.657,4.6224,4.622,4.6217,0,4.5328,4.5491,4.5634,4.5675,4.5764,4.5831,4.5871,4.5939,4.6001,4.6084,4.6124,4.6222,4.6275,4.6351,4.6368,4.6303,4.654,4.6455,4.6555,4.6555,4.6607,4.6603,4.6888,4.6642,4.6641,4.6641,4.664,0,4.5551,4.5677,4.5706,4.5794,4.5934,4.5942,4.6081,4.6116,4.6177,4.6272,4.6252,4.6342,4.6358,4.6451,4.6465,4.6605,4.6629,4.6645,4.6647,4.6647,4.6645,4.6682,4.6669,4.6648,4.6647,4.6645,4.6644,0,4.5752,4.5777,4.5931,4.6002,4.6022,4.6123,4.6183,4.6268,4.6293,4.6413,4.6442,4.6482,4.6591,4.6614,4.6744,4.6753,4.6919,4.6908,4.6894,4.6893,4.6992,4.6983,4.7312,4.7355,4.708,4.7083,4.7085,0,4.5893,4.5989,4.607,4.6131,4.6174,4.6274,4.6336,4.6348,4.6414,4.6505,4.6579,4.6685,4.677,4.6945,4.6986,4.7085,4.7076,4.7185,4.7091,4.7088,4.7078,4.7072,4.7082,4.7203,4.7206,4.7208,4.721,0,4.6141,4.6148,4.6238,4.6334,4.6409,4.6484,4.6556,4.6608,4.6629,4.6705,4.6815,4.6881,4.7013,4.7118,4.7217,4.7259,4.7239,4.7239,4.7268,4.7268,4.7256,4.7264,4.6943,4.7232,4.723,4.7228,4.7227,4.7226,4.6316,4.64,4.647,4.6571,4.6626,4.6694,4.6777,4.6812,4.6904,4.7011,4.7012,4.7133,4.7204,4.7334,4.7382,4.7477,4.7443,4.7485,4.7495,4.7505,4.7514,4.7241,4.7495,4.7494,4.7494,4.7493,4.7493,0,4.6563,4.6606,4.6699,4.68,4.688,4.6853,4.6931,4.7,4.7106,4.7173,4.7258,4.7384,4.7487,4.7536,4.7637,4.7703,4.7697,4.773,4.7725,4.7735,4.7538,4.7504,4.7733,4.7733,4.7733,4.7733,4.7733,4.7733,4.67,4.684,4.6856,4.7023,4.7066,4.7183,4.723,4.7292,4.7346,4.7488,4.7573,4.7603,4.7664,4.7769,4.7862,4.7874,4.7912,4.795,4.7957,4.7773,4.7749,4.7725,4.7692,4.7958,4.7958,4.8145,4.8147,4.8148]},{"header":{"parameterUnit":"m.s-1","parameterCategory":1,"la1":30.2991,"la2":30.254,"lo1":-89.0895,"lo2":-89.0444,"dy":0.0017,"dx":0.0017,"nx":28,"ny":28,"refTime":"2024-08-13T21:00:00:Z","depth":0,"parameterNumber":3,"parameterNumberName":"V-component_of_WINDS"},"data":[0,0,0,0,0,0,0,0,0,0,0,0,0,0,0,0,0,0,0,0,0,0,0,0,0,0,0,0,0,0,0,0,0,0,0,0,0,0,0,0,0,0,0,0,0,0,0,0,0,0,0,0,0,0,0,0,0,0,-0.6132,-0.6133,0,-0.6162,-0.6162,-0.6162,-0.6179,-0.6179,-0.618,-0.618,-0.6209,-0.621,-0.621,0,0,0,0,0,0,0,0,0,0,0,0,0,-0.609,-0.6091,-0.6132,-0.6133,-0.6133,-0.6162,-0.6162,-0.6162,-0.6179,-0.6179,-0.618,-0.618,-0.6209,-0.6209,-0.621,0,0,0,0,0,0,0,0,0,0,0,0,0,-0.6113,-0.6091,-0.6132,-0.6145,-0.6146,-0.6162,-0.6162,-0.6163,-0.6179,-0.6179,-0.618,-0.618,-0.6208,-0.6209,-0.621,-0.6215,0,0,-0.6214,-0.6214,0,0,0,0,0,0,0,0,-0.6112,-0.6114,-0.6143,-0.6144,-0.6146,-0.6167,-0.6158,-0.618,-0.6179,-0.6167,-0.618,-0.618,-0.6195,-0.6197,-0.6202,-0.6216,-0.6218,-0.6214,-0.6214,-0.6215,-0.6215,0,0,0,0,0,0,0,-0.611,-0.6113,-0.6144,-0.6143,-0.6145,-0.6149,-0.6152,-0.6162,-0.618,-0.6168,-0.6169,-0.6173,-0.6196,-0.6201,-0.6203,-0.6218,-0.6214,-0.6215,-0.6215,-0.6216,-0.6238,-0.6238,0,0,0,0,0,0,-0.6106,-0.6112,-0.6143,-0.6145,-0.6129,-0.615,-0.6153,-0.616,-0.618,-0.6183,-0.6172,-0.6173,-0.6199,-0.6202,-0.6204,-0.6211,-0.6215,-0.6216,-0.6216,-0.6238,-0.6238,-0.6238,0,0,0,0,0,0,-0.6105,-0.6109,-0.6142,-0.6129,-0.6133,-0.615,-0.6158,-0.6161,-0.6166,-0.6183,-0.6186,-0.6175,-0.6199,-0.6203,-0.6212,-0.6212,-0.6216,-0.6217,-0.6238,-0.6238,-0.6238,-0.6225,0,0,0,0,0,0,-0.6104,-0.6109,-0.6111,-0.6129,-0.6134,-0.615,-0.6158,-0.6161,-0.6168,-0.6169,-0.6186,-0.6189,-0.62,-0.6211,-0.6213,-0.6214,-0.6218,-0.6238,-0.6238,-0.6238,-0.6225,-0.6224,-0.6224,0,0,0,0,0,-0.6103,-0.6105,-0.6111,-0.6114,-0.6137,-0.6149,-0.6152,-0.6165,-0.6168,-0.617,-0.6181,-0.6189,-0.6212,-0.6212,-0.6215,-0.6216,-0.6238,-0.6238,-0.6238,-0.6226,-0.6225,-0.6224,0,0,0,0,0,0,-0.6086,-0.6108,-0.6114,-0.6123,-0.6134,-0.6152,-0.6155,-0.6163,-0.6174,-0.6174,-0.6189,-0.6193,-0.6201,-0.6209,-0.6208,-0.6221,-0.6226,-0.6226,-0.6216,-0.6215,-0.6214,-0.6211,-0.6219,0,0,0,0,0,-0.6084,-0.6093,-0.6111,-0.6117,-0.6123,-0.6138,-0.6144,-0.6153,-0.6165,-0.617,-0.6182,-0.6193,-0.6203,-0.6209,-0.6219,-0.6227,-0.6231,-0.6229,-0.6228,-0.6227,-0.6227,-0.6232,-0.6232,-0.6237,-0.6237,-0.6237,0,0,-0.6079,-0.6092,-0.6096,-0.6114,-0.6124,-0.6133,-0.6142,-0.6151,-0.6157,-0.6171,-0.6181,-0.619,-0.6204,-0.6213,-0.6217,-0.622,-0.6227,-0.6227,-0.6226,-0.6227,-0.6232,-0.6232,-0.6231,-0.6237,-0.6237,-0.6237,0,0,-0.6074,-0.6084,-0.6091,-0.6101,-0.6116,-0.6126,-0.6128,-0.6145,-0.6152,-0.6162,-0.6173,-0.6181,-0.6198,-0.6207,-0.6214,-0.6214,-0.6221,-0.6217,-0.6212,-0.6216,-0.6216,-0.6215,-0.6216,-0.6215,-0.6217,-0.6217,-0.6217,0,-0.6065,-0.6079,-0.6093,-0.6101,-0.6109,-0.6122,-0.6129,-0.6138,-0.6155,-0.616,-0.6163,-0.6185,-0.6195,-0.6207,-0.6207,-0.6212,-0.6214,-0.6215,-0.6215,-0.6215,-0.6215,-0.6215,-0.6215,-0.6216,-0.6216,-0.6216,-0.6216,0,-0.6068,-0.6078,-0.6081,-0.6098,-0.6106,-0.6113,-0.6128,-0.6135,-0.6143,-0.6153,-0.6163,-0.6176,-0.619,-0.6193,-0.6201,-0.6206,-0.6207,-0.6212,-0.6217,-0.6213,-0.6214,-0.6214,-0.6215,-0.6215,-0.6216,-0.6216,0,0,-0.6054,-0.6079,-0.608,-0.6088,-0.6106,-0.6113,-0.6121,-0.6135,-0.614,-0.6152,-0.6159,-0.6173,-0.6179,-0.6187,-0.6196,-0.62,-0.6199,-0.6205,-0.6205,-0.6203,-0.6205,-0.6201,-0.6201,-0.6204,-0.6204,-0.6204,-0.6204,0,-0.6051,-0.6067,-0.608,-0.609,-0.6099,-0.6112,-0.612,-0.6131,-0.6141,-0.615,-0.6161,-0.6171,-0.6177,-0.6182,-0.6187,-0.6198,-0.6199,-0.6198,-0.6211,-0.6211,-0.6207,-0.6201,-0.6197,-0.6197,-0.6205,-0.6205,-0.6205,0,-0.6051,-0.6062,-0.6074,-0.6092,-0.6096,-0.6102,-0.6116,-0.6124,-0.6138,-0.6145,-0.6154,-0.6164,-0.6173,-0.6177,-0.619,-0.6189,-0.6195,-0.6201,-0.6202,-0.6203,-0.6208,-0.6203,-0.6197,-0.6197,-0.6205,-0.6205,-0.6205,0,-0.6039,-0.6058,-0.6067,-0.6074,-0.6094,-0.6098,-0.6107,-0.6121,-0.6129,-0.614,-0.6145,-0.6158,-0.6165,-0.6174,-0.6187,-0.6189,-0.6199,-0.6204,-0.6205,-0.6205,-0.6206,-0.6206,-0.6201,-0.621,-0.621,-0.621,-0.621,0,-0.6035,-0.6042,-0.6062,-0.6068,-0.6076,-0.6091,-0.6098,-0.6108,-0.612,-0.6129,-0.6141,-0.6148,-0.6164,-0.6174,-0.6184,-0.6193,-0.6196,-0.6202,-0.6205,-0.6201,-0.62,-0.6205,-0.6206,-0.621,-0.621,-0.621,-0.621,0,-0.6023,-0.6037,-0.6049,-0.6067,-0.6072,-0.6077,-0.6094,-0.61,-0.611,-0.612,-0.6124,-0.614,-0.6152,-0.6166,-0.6182,-0.6189,-0.6197,-0.6201,-0.6193,-0.6194,-0.6195,-0.6194,-0.6192,-0.6193,-0.6202,-0.6201,-0.6201,0,-0.602,-0.6025,-0.6045,-0.6051,-0.606,-0.607,-0.6078,-0.6093,-0.61,-0.6117,-0.6121,-0.6134,-0.6145,-0.6163,-0.6176,-0.6189,-0.6193,-0.6191,-0.6195,-0.6191,-0.6193,-0.6193,-0.6193,-0.619,-0.619,-0.619,-0.619,0,-0.6012,-0.6019,-0.603,-0.6043,-0.6052,-0.6063,-0.6075,-0.608,-0.6097,-0.6105,-0.6117,-0.6126,-0.6143,-0.6155,-0.6169,-0.6179,-0.6187,-0.6189,-0.619,-0.6186,-0.6181,-0.6184,-0.619,-0.6189,-0.6189,-0.6189,-0.6189,-0.6189,-0.6004,-0.601,-0.6025,-0.6037,-0.6047,-0.6058,-0.6065,-0.6077,-0.6087,-0.6102,-0.6111,-0.6123,-0.6137,-0.6157,-0.6166,-0.6176,-0.6179,-0.618,-0.6181,-0.6181,-0.618,-0.618,-0.6179,-0.6179,-0.6179,-0.6179,-0.6179,0,-0.5998,-0.6008,-0.6019,-0.6035,-0.6044,-0.6052,-0.6066,-0.6073,-0.6084,-0.6096,-0.6107,-0.6121,-0.6134,-0.6149,-0.6162,-0.6167,-0.6172,-0.617,-0.617,-0.6172,-0.6176,-0.6174,-0.6167,-0.6167,-0.6167,-0.6167,-0.6167,-0.6167,-0.5995,-0.6005,-0.6014,-0.603,-0.604,-0.6052,-0.6059,-0.6069,-0.608,-0.6095,-0.6106,-0.6116,-0.6129,-0.6144,-0.6156,-0.616,-0.6164,-0.6162,-0.6167,-0.6171,-0.6172,-0.6173,-0.6171,-0.6163,-0.6163,-0.6162,-0.6162,-0.6162]}]]